Location: Baili�vre
(50.0696°N, 4.2409°E)
Time: 17:16:15
(UTC+00:00)

Cosmos 1378 - Pass Details

Date: 08 August 2020
Orbit: 491 x 502 km, 82.5° (Epoch: 24 September)

Event Time Altitude Azimuth Distance (km) Brightness Sun altitude
Rises 23:06:43 0° 350° (N) 2,610 8.2 -23.5°
Reaches altitude 10° 23:08:51 10° 351° (N) 1,719 6.9 -23.6°
Enters shadow 23:12:06 64° 3° (N) 558 3.5 -23.7°
